Woody, CA

12:19 PM PST on February 24, 2017 (GMT -0800)
MWOCC1 | | Change Station

Elev 1587 ft 35.71 °N, 118.83 °W | Updated 20 minutes ago

Clear
Clear
49.0 °F
Feels Like 47 °F
N
5.0
Wind Variable Wind from WSW
Gusts 8.0 mph

Today
High -- | Low -- °F
--% Chance of Precip.
Yesterday
High -- | Low -- °F
Precip. -- in
Pressure 30.33 in
Visibility 10.0 miles
Clouds Clear
Windchill 47 °F
Dew Point 34.0 °F
Humidity 57%
Rainfall in
Snow Depth Not available.
6:31 AM 5:46 PM
Waning Crescent, 4% visible
METAR KPTV 241956Z AUTO VRB05KT 10SM CLR 12/03 A3028 RMK AO2 SLP269 T01170028
Pressure 30.33 in
Visibility 10.0 miles
Clouds Clear
Windchill 47 °F
Dew Point 34.0 °F
Humidity 57%
Rainfall in
Snow Depth Not available.
6:31 AM 5:46 PM
Waning Crescent, 4% visible
METAR KPTV 241956Z AUTO VRB05KT 10SM CLR 12/03 A3028 RMK AO2 SLP269 T01170028

Get Your Daily Forecast Email!

Thanks for signing up!

Be on the lookout for a verification email in your inbox.

You'll start receiving the daily forecast at 8 AM.

×

10-Day Weather Forecast

Almanac

Astronomy

Feb. 24, 2017 Rise Set
Actual Time
Civil Twilight
Nautical Twilight
Astronomical Twilight
Moon
Length of Visible Light
Length of Day
Tomorrow will be .
, % of the Moon is Illuminated

Today's Extremes

State Highs State Lows

Community

WunderPhotos

Upload Photos

1,962,540 photos uploaded!

WunderBlog® & News

Nearby

Air Quality

  Air Quality AQ Index Pollutant
Not available.

Snow Depth

Station Depth Elevation

Earthquake Activity

City Distance Mag. Time & Date
Minimum magnitude displayed is 2.5.

Coastal Water Temperatures

Place Temperature

Stations

Nearby Weather Stations

Station Location Temp. Windchill Dew Point Humidity Wind Precip. Elev Updated Type
                   

Watches & Warnings

There are currently no watches in effect.